カタログに戻る

STARLINK-4483

運用中通信VLEO
NORAD 53532·PAYLOAD·🇺🇸 United States

打ち上げ Aug 19, 2022 から Cape Canaveral Space Force Station

Loading…

次のパス (今後24時間)

TLE

最新Source: CelesTrak SupGP

元期: Sep 14, 2026, 20:39 UTC

1 53532C 22101F   26257.86090278 -.00016851  00000+0 -10570-2 0  2570
2 53532  53.1586 304.2731 0001150  87.9255 327.1327 15.08835903    19

AllMySatでSTARLINK-4483をリアルタイム追跡

Download on the App Store